Location: Bushey
(51.6333°N, 0.3667°W)
Time: 13:50:34
(UTC+00:00)

Cosmos 44 Rocket - Pass Details

Date: 03 March 2021
Orbit: 636 x 754 km, 65.1° (Epoch: 13 April)

Event Time Altitude Azimuth Distance (km) Brightness Sun altitude
Rises 18:18:10 0° 317° (NW) 3,207 7.4 -5.9°
Reaches altitude 10° 18:20:33 10° 317° (NW) 2,285 6.6 -6.2°
Maximum altitude 18:25:49 79° 232° (SW) 772 3.7 -7.0°
Drops below altitude 10° 18:31:01 10° 146° (SE) 2,263 5.6 -7.9°
Sets 18:33:23 0° 145° (SE) 3,174 6.4 -8.2°
